"Period start","avg(HW err(1)/warn(2) (#))","avg(Visibility (m))","avg(Weather code (#))","avg(Precip intensity (mm/h))","min(HW err(1)/warn(2) (#))","max(HW err(1)/warn(2) (#))","std(HW err(1)/warn(2) (#))","med(HW err(1)/warn(2) (#))","min(Visibility (m))","max(Visibility (m))","std(Visibility (m))","med(Visibility (m))","min(Weather code (#))","max(Weather code (#))","std(Weather code (#))","med(Weather code (#))","min(Precip intensity (mm/h))","max(Precip intensity (mm/h))","std(Precip intensity (mm/h))","med(Precip intensity (mm/h))"
2014-09-11 00:00:00,2,50000,0,0.00,2,2,0,2,50000,50000,0,50000,0,0,0,0,0.00,0.00,0.00,0.00
2014-09-11 00:10:00,2,49609,0,0.00,2,2,0,2,46094,50000,1172,50000,0,0,0,0,0.00,0.00,0.00,0.00
2014-09-11 00:20:00,2,47271,0,0.00,2,2,0,2,39679,50000,3172,48234,0,0,0,0,0.00,0.00,0.00,0.00
2014-09-11 00:30:00,2,47560,0,0.00,2,2,0,2,33213,50000,5088,50000,0,0,0,0,0.00,0.00,0.00,0.00
2014-09-11 00:40:00,2,47821,0,0.00,2,2,0,2,34405,50000,4670,50000,0,0,0,0,0.00,0.00,0.00,0.00
2014-09-11 00:50:00,2,42498,0,0.00,2,2,0,2,32175,50000,5348,43290,0,0,0,0,0.00,0.00,0.00,0.00
2014-09-11 01:00:00,2,39180,0,0.00,2,2,0,2,29192,48094,7028,39393,0,0,0,0,0.00,0.00,0.00,0.00
2014-09-11 01:10:00,2,40626,0,0.00,2,2,0,2,22639,48995,7476,42256,0,0,0,0,0.00,0.00,0.00,0.00
2014-09-11 01:20:00,2,42982,0,0.00,2,2,0,2,29585,50000,6815,43364,0,0,0,0,0.00,0.00,0.00,0.00
2014-09-11 01:30:00,2,43092,0,0.00,2,2,0,2,29481,50000,8002,47026,0,0,0,0,0.00,0.00,0.00,0.00
2014-09-11 01:40:00,2,45032,0,0.00,2,2,0,2,37212,50000,4946,46840,0,0,0,0,0.00,0.00,0.00,0.00
2014-09-11 01:50:00,2,43034,0,0.00,2,2,0,2,29087,50000,6470,46114,0,0,0,0,0.00,0.00,0.00,0.00
2014-09-11 02:00:00,2,44174,0,0.00,2,2,0,2,35065,50000,5179,44792,0,0,0,0,0.00,0.00,0.00,0.00
2014-09-11 02:10:00,2,45711,0,0.00,2,2,0,2,37409,50000,5216,49653,0,0,0,0,0.00,0.00,0.00,0.00
2014-09-11 02:20:00,2,43284,0,0.00,2,2,0,2,37391,50000,4328,42066,0,0,0,0,0.00,0.00,0.00,0.00
2014-09-11 02:30:00,2,46938,0,0.00,2,2,0,2,37905,50000,4343,50000,0,0,0,0,0.00,0.00,0.00,0.00
2014-09-11 02:40:00,2,45387,0,0.00,2,2,0,2,34049,50000,5289,47924,0,0,0,0,0.00,0.00,0.00,0.00
2014-09-11 02:50:00,2,41980,0,0.00,2,2,0,2,35866,50000,4790,40258,0,0,0,0,0.00,0.00,0.00,0.00
2014-09-11 03:00:00,2,45813,0,0.00,2,2,0,2,40783,50000,3841,45696,0,0,0,0,0.00,0.00,0.00,0.00
2014-09-11 03:10:00,2,41060,0,0.00,2,2,0,2,32397,50000,6214,40157,0,0,0,0,0.00,0.00,0.00,0.00
2014-09-11 03:20:00,2,40927,0,0.00,2,2,0,2,20880,50000,8711,41222,0,0,0,0,0.00,0.00,0.00,0.00
2014-09-11 03:30:00,2,41022,0,0.00,2,2,0,2,28221,50000,5365,41214,0,0,0,0,0.00,0.00,0.00,0.00
2014-09-11 03:40:00,2,42747,0,0.00,2,2,0,2,26618,50000,7512,45280,0,0,0,0,0.00,0.00,0.00,0.00
2014-09-11 03:50:00,1,45315,0,0.00,0,2,1,2,37681,48631,3006,46185,0,0,0,0,0.00,0.00,0.00,0.00
2014-09-11 04:00:00,2,49773,0,0.00,2,2,0,2,47733,50000,680,50000,0,0,0,0,0.00,0.00,0.00,0.00
2014-09-11 04:10:00,2,49397,0,0.00,2,2,0,2,46262,50000,1167,50000,0,0,0,0,0.00,0.00,0.00,0.00
2014-09-11 04:20:00,2,47739,0,0.00,2,2,0,2,39877,50000,3695,50000,0,0,0,0,0.00,0.00,0.00,0.00
2014-09-11 04:30:00,2,47854,0,0.00,2,2,0,2,41972,50000,2754,48978,0,0,0,0,0.00,0.00,0.00,0.00
2014-09-11 04:40:00,2,48866,0,0.00,2,2,0,2,45338,50000,1810,50000,0,0,0,0,0.00,0.00,0.00,0.00
2014-09-11 04:50:00,2,47535,0,0.00,2,2,0,2,37468,50000,4103,49908,0,0,0,0,0.00,0.00,0.00,0.00
2014-09-11 05:00:00,2,46352,0,0.00,2,2,0,2,33252,50000,5732,48938,0,0,0,0,0.00,0.00,0.00,0.00
2014-09-11 05:10:00,2,48028,0,0.00,2,2,0,2,41675,50000,2568,49130,0,0,0,0,0.00,0.00,0.00,0.00
2014-09-11 05:20:00,2,49658,0,0.00,2,2,0,2,46855,50000,936,50000,0,0,0,0,0.00,0.00,0.00,0.00
2014-09-11 05:30:00,2,48148,0,0.00,2,2,0,2,40698,50000,3498,50000,0,0,0,0,0.00,0.00,0.00,0.00
2014-09-11 05:40:00,2,49572,0,0.00,2,2,0,2,45725,50000,1282,50000,0,0,0,0,0.00,0.00,0.00,0.00
2014-09-11 05:50:00,2,47330,0,0.00,2,2,0,2,36588,50000,4414,50000,0,0,0,0,0.00,0.00,0.00,0.00
2014-09-11 06:00:00,2,49326,0,0.00,2,2,0,2,46044,50000,1271,50000,0,0,0,0,0.00,0.00,0.00,0.00
2014-09-11 06:10:00,2,48461,0,0.00,2,2,0,2,41348,50000,2995,50000,0,0,0,0,0.00,0.00,0.00,0.00
2014-09-11 06:20:00,2,49922,0,0.00,2,2,0,2,49223,50000,233,50000,0,0,0,0,0.00,0.00,0.00,0.00
2014-09-11 06:30:00,2,48212,0,0.00,2,2,0,2,43084,50000,2319,49714,0,0,0,0,0.00,0.00,0.00,0.00
2014-09-11 06:40:00,2,49501,0,0.00,2,2,0,2,45510,50000,1339,50000,0,0,0,0,0.00,0.00,0.00,0.00
2014-09-11 06:50:00,2,50000,0,0.00,2,2,0,2,50000,50000,0,50000,0,0,0,0,0.00,0.00,0.00,0.00
2014-09-11 07:00:00,2,49906,0,0.00,2,2,0,2,49398,50000,196,50000,0,0,0,0,0.00,0.00,0.00,0.00
2014-09-11 07:10:00,2,49956,0,0.00,2,2,0,2,49620,50000,113,50000,0,0,0,0,0.00,0.00,0.00,0.00
2014-09-11 07:20:00,2,49674,0,0.00,2,2,0,2,46738,50000,979,50000,0,0,0,0,0.00,0.00,0.00,0.00
2014-09-11 07:30:00,2,50000,0,0.00,2,2,0,2,50000,50000,0,50000,0,0,0,0,0.00,0.00,0.00,0.00
2014-09-11 07:40:00,2,50000,0,0.00,2,2,0,2,50000,50000,0,50000,0,0,0,0,0.00,0.00,0.00,0.00
2014-09-11 07:50:00,2,49797,0,0.00,2,2,0,2,48317,50000,504,50000,0,0,0,0,0.00,0.00,0.00,0.00
2014-09-11 08:00:00,2,49556,0,0.00,2,2,0,2,47690,50000,889,50000,0,0,0,0,0.00,0.00,0.00,0.00
2014-09-11 08:10:00,2,49160,0,0.00,2,2,0,2,45700,50000,1645,50000,0,0,0,0,0.00,0.00,0.00,0.00
2014-09-11 08:20:00,2,49057,0,0.00,2,2,0,2,45655,50000,1413,50000,0,0,0,0,0.00,0.00,0.00,0.00
2014-09-11 08:30:00,2,50000,0,0.00,2,2,0,2,50000,50000,0,50000,0,0,0,0,0.00,0.00,0.00,0.00
2014-09-11 08:40:00,2,49703,0,0.00,2,2,0,2,47967,50000,643,50000,0,0,0,0,0.00,0.00,0.00,0.00
2014-09-11 08:50:00,2,49895,0,0.00,2,2,0,2,48946,50000,316,50000,0,0,0,0,0.00,0.00,0.00,0.00
2014-09-11 09:00:00,2,49532,0,0.00,2,2,0,2,45316,50000,1405,50000,0,0,0,0,0.00,0.00,0.00,0.00
2014-09-11 09:10:00,2,50000,0,0.00,2,2,0,2,50000,50000,0,50000,0,0,0,0,0.00,0.00,0.00,0.00
2014-09-11 09:20:00,2,49858,0,0.00,2,2,0,2,48580,50000,426,50000,0,0,0,0,0.00,0.00,0.00,0.00
2014-09-11 09:30:00,2,49556,0,0.00,2,2,0,2,46320,50000,1102,50000,0,0,0,0,0.00,0.00,0.00,0.00
2014-09-11 09:40:00,2,50000,0,0.00,2,2,0,2,50000,50000,0,50000,0,0,0,0,0.00,0.00,0.00,0.00
2014-09-11 09:50:00,2,49834,0,0.00,2,2,0,2,48951,50000,346,50000,0,0,0,0,0.00,0.00,0.00,0.00
2014-09-11 10:00:00,2,50000,0,0.00,2,2,0,2,50000,50000,0,50000,0,0,0,0,0.00,0.00,0.00,0.00
2014-09-11 10:10:00,2,50000,0,0.00,2,2,0,2,50000,50000,0,50000,0,0,0,0,0.00,0.00,0.00,0.00
2014-09-11 10:20:00,2,50000,0,0.00,2,2,0,2,50000,50000,0,50000,0,0,0,0,0.00,0.00,0.00,0.00
2014-09-11 10:30:00,2,50000,0,0.00,2,2,0,2,50000,50000,0,50000,0,0,0,0,0.00,0.00,0.00,0.00
2014-09-11 10:40:00,2,50000,0,0.00,2,2,0,2,50000,50000,0,50000,0,0,0,0,0.00,0.00,0.00,0.00
2014-09-11 10:50:00,2,50000,0,0.00,2,2,0,2,50000,50000,0,50000,0,0,0,0,0.00,0.00,0.00,0.00
2014-09-11 11:00:00,2,50000,0,0.00,2,2,0,2,50000,50000,0,50000,0,0,0,0,0.00,0.00,0.00,0.00
2014-09-11 11:10:00,2,50000,0,0.00,2,2,0,2,50000,50000,0,50000,0,0,0,0,0.00,0.00,0.00,0.00
2014-09-11 11:20:00,2,50000,0,0.00,2,2,0,2,50000,50000,0,50000,0,0,0,0,0.00,0.00,0.00,0.00
2014-09-11 11:30:00,2,50000,0,0.00,2,2,0,2,50000,50000,0,50000,0,0,0,0,0.00,0.00,0.00,0.00
2014-09-11 11:40:00,2,50000,0,0.00,2,2,0,2,50000,50000,0,50000,0,0,0,0,0.00,0.00,0.00,0.00
2014-09-11 11:50:00,2,50000,0,0.00,2,2,0,2,50000,50000,0,50000,0,0,0,0,0.00,0.00,0.00,0.00
2014-09-11 12:00:00,2,50000,0,0.00,2,2,0,2,50000,50000,0,50000,0,0,0,0,0.00,0.00,0.00,0.00
2014-09-11 12:10:00,2,50000,0,0.00,2,2,0,2,50000,50000,0,50000,0,0,0,0,0.00,0.00,0.00,0.00
2014-09-11 12:20:00,2,49903,0,0.00,2,2,0,2,49029,50000,291,50000,0,0,0,0,0.00,0.00,0.00,0.00
2014-09-11 12:30:00,2,50000,0,0.00,2,2,0,2,50000,50000,0,50000,0,0,0,0,0.00,0.00,0.00,0.00
2014-09-11 12:40:00,2,49830,0,0.00,2,2,0,2,48869,50000,362,50000,0,0,0,0,0.00,0.00,0.00,0.00
2014-09-11 12:50:00,2,50000,0,0.00,2,2,0,2,50000,50000,0,50000,0,0,0,0,0.00,0.00,0.00,0.00
2014-09-11 13:00:00,2,50000,0,0.00,2,2,0,2,50000,50000,0,50000,0,0,0,0,0.00,0.00,0.00,0.00
2014-09-11 13:10:00,2,50000,0,0.00,2,2,0,2,50000,50000,0,50000,0,0,0,0,0.00,0.00,0.00,0.00
2014-09-11 13:20:00,2,50000,0,0.00,2,2,0,2,50000,50000,0,50000,0,0,0,0,0.00,0.00,0.00,0.00
2014-09-11 13:30:00,1,50000,0,0.00,0,2,1,2,50000,50000,0,50000,0,0,0,0,0.00,0.00,0.00,0.00
2014-09-11 13:40:00,2,49985,0,0.00,0,2,1,2,49848,50000,46,50000,0,0,0,0,0.00,0.00,0.00,0.00
2014-09-11 13:50:00,0,49783,0,0.00,0,2,1,0,47834,50000,650,50000,0,0,0,0,0.00,0.00,0.00,0.00
2014-09-11 14:00:00,2,50000,0,0.00,0,2,1,2,50000,50000,0,50000,0,0,0,0,0.00,0.00,0.00,0.00
2014-09-11 14:10:00,2,50000,0,0.00,0,2,1,2,50000,50000,0,50000,0,0,0,0,0.00,0.00,0.00,0.00
2014-09-11 14:20:00,0,49823,0,0.00,0,0,0,0,48229,50000,531,50000,0,0,0,0,0.00,0.00,0.00,0.00
2014-09-11 14:30:00,0,50000,0,0.00,0,0,0,0,50000,50000,0,50000,0,0,0,0,0.00,0.00,0.00,0.00
2014-09-11 14:40:00,0,50000,0,0.00,0,0,0,0,50000,50000,0,50000,0,0,0,0,0.00,0.00,0.00,0.00
2014-09-11 14:50:00,1,50000,0,0.00,0,2,1,0,50000,50000,0,50000,0,0,0,0,0.00,0.00,0.00,0.00
2014-09-11 15:00:00,0,50000,0,0.00,0,2,1,0,50000,50000,0,50000,0,0,0,0,0.00,0.00,0.00,0.00
2014-09-11 15:10:00,0,50000,0,0.00,0,0,0,0,50000,50000,0,50000,0,0,0,0,0.00,0.00,0.00,0.00
2014-09-11 15:20:00,0,50000,0,0.00,0,0,0,0,50000,50000,0,50000,0,0,0,0,0.00,0.00,0.00,0.00
2014-09-11 15:30:00,0,49928,0,0.00,0,0,0,0,49281,50000,216,50000,0,0,0,0,0.00,0.00,0.00,0.00
2014-09-11 15:40:00,0,49787,0,0.00,0,0,0,0,47868,50000,640,50000,0,0,0,0,0.00,0.00,0.00,0.00
2014-09-11 15:50:00,0,49970,0,0.00,0,0,0,0,49833,50000,60,50000,0,0,0,0,0.00,0.00,0.00,0.00
2014-09-11 16:00:00,0,49308,0,0.00,0,0,0,0,46349,50000,1257,50000,0,0,0,0,0.00,0.00,0.00,0.00
2014-09-11 16:10:00,0,50000,0,0.00,0,0,0,0,50000,50000,0,50000,0,0,0,0,0.00,0.00,0.00,0.00
2014-09-11 16:20:00,0,49345,0,0.00,0,0,0,0,46559,50000,1098,50000,0,0,0,0,0.00,0.00,0.00,0.00
2014-09-11 16:30:00,0,49624,0,0.00,0,0,0,0,48238,50000,635,50000,0,0,0,0,0.00,0.00,0.00,0.00
2014-09-11 16:40:00,0,49649,0,0.00,0,0,0,0,48119,50000,704,50000,0,0,0,0,0.00,0.00,0.00,0.00
2014-09-11 16:50:00,0,50000,0,0.00,0,0,0,0,50000,50000,0,50000,0,0,0,0,0.00,0.00,0.00,0.00
2014-09-11 17:00:00,0,50000,0,0.00,0,0,0,0,50000,50000,0,50000,0,0,0,0,0.00,0.00,0.00,0.00
2014-09-11 17:10:00,0,49856,0,0.00,0,0,0,0,48565,50000,430,50000,0,0,0,0,0.00,0.00,0.00,0.00
2014-09-11 17:20:00,0,50000,0,0.00,0,0,0,0,50000,50000,0,50000,0,0,0,0,0.00,0.00,0.00,0.00
2014-09-11 17:30:00,0,50000,0,0.00,0,0,0,0,50000,50000,0,50000,0,0,0,0,0.00,0.00,0.00,0.00
2014-09-11 17:40:00,0,49990,0,0.00,0,0,0,0,49897,50000,31,50000,0,0,0,0,0.00,0.00,0.00,0.00
2014-09-11 17:50:00,0,49961,0,0.00,0,0,0,0,49608,50000,118,50000,0,0,0,0,0.00,0.00,0.00,0.00
2014-09-11 18:00:00,0,49955,0,0.00,0,0,0,0,49551,50000,135,50000,0,0,0,0,0.00,0.00,0.00,0.00
2014-09-11 18:10:00,0,50000,0,0.00,0,0,0,0,50000,50000,0,50000,0,0,0,0,0.00,0.00,0.00,0.00
2014-09-11 18:20:00,0,49995,0,0.00,0,0,0,0,49946,50000,16,50000,0,0,0,0,0.00,0.00,0.00,0.00
2014-09-11 18:30:00,0,49472,0,0.00,0,0,0,0,46079,50000,1201,50000,0,0,0,0,0.00,0.00,0.00,0.00
2014-09-11 18:40:00,0,43662,0,0.00,0,0,0,0,34475,50000,5230,45126,0,0,0,0,0.00,0.00,0.00,0.00
2014-09-11 18:50:00,0,48723,0,0.00,0,0,0,0,44357,50000,1916,50000,0,0,0,0,0.00,0.00,0.00,0.00
2014-09-11 19:00:00,0,49738,0,0.00,0,0,0,0,48373,50000,497,50000,0,0,0,0,0.00,0.00,0.00,0.00
2014-09-11 19:10:00,0,49661,0,0.00,0,0,0,0,46606,50000,1018,50000,0,0,0,0,0.00,0.00,0.00,0.00
2014-09-11 19:20:00,0,48706,0,0.00,0,0,0,0,42502,50000,2309,50000,0,0,0,0,0.00,0.00,0.00,0.00
2014-09-11 19:30:00,0,48835,0,0.00,0,0,0,0,42473,50000,2329,50000,0,0,0,0,0.00,0.00,0.00,0.00
2014-09-11 19:40:00,0,48848,0,0.00,0,0,0,0,41476,50000,2560,50000,0,0,0,0,0.00,0.00,0.00,0.00
2014-09-11 19:50:00,0,47353,0,0.00,0,0,0,0,42141,50000,2543,47440,0,0,0,0,0.00,0.00,0.00,0.00
2014-09-11 20:00:00,0,48011,0,0.00,0,0,0,0,41509,50000,3184,49805,0,0,0,0,0.00,0.00,0.00,0.00
2014-09-11 20:10:00,0,44100,0,0.00,0,0,0,0,26574,50000,6711,45670,0,0,0,0,0.00,0.00,0.00,0.00
2014-09-11 20:20:00,0,50000,0,0.00,0,0,0,0,50000,50000,0,50000,0,0,0,0,0.00,0.00,0.00,0.00
2014-09-11 20:30:00,0,50000,0,0.00,0,0,0,0,50000,50000,0,50000,0,0,0,0,0.00,0.00,0.00,0.00
2014-09-11 20:40:00,0,49802,0,0.00,0,0,0,0,48019,50000,594,50000,0,0,0,0,0.00,0.00,0.00,0.00
2014-09-11 20:50:00,0,48093,0,0.00,0,0,0,0,36035,50000,4156,50000,0,0,0,0,0.00,0.00,0.00,0.00
2014-09-11 21:00:00,0,35827,0,0.00,0,0,0,0,15475,50000,13212,35059,0,0,0,0,0.00,0.00,0.00,0.00
2014-09-11 21:10:00,0,43421,0,0.00,0,0,0,0,15915,50000,10890,48994,0,0,0,0,0.00,0.00,0.00,0.00
2014-09-11 21:20:00,0,42108,0,0.00,0,0,0,0,13620,50000,12265,49101,0,0,0,0,0.00,0.00,0.00,0.00
2014-09-11 21:30:00,0,46254,0,0.00,0,0,0,0,42252,50000,2514,45855,0,0,0,0,0.00,0.00,0.00,0.00
2014-09-11 21:40:00,0,44285,0,0.00,0,0,0,0,38545,48274,3140,44927,0,0,0,0,0.00,0.00,0.00,0.00
2014-09-11 21:50:00,0,49336,0,0.00,0,0,0,0,47542,50000,883,50000,0,0,0,0,0.00,0.00,0.00,0.00
2014-09-11 22:00:00,0,49811,0,0.00,0,0,0,0,48621,50000,425,50000,0,0,0,0,0.00,0.00,0.00,0.00
2014-09-11 22:10:00,0,49946,8,0.13,0,0,0,0,49462,50000,161,50000,0,41,16,0,0.00,1.15,0.34,0.00
2014-09-11 22:20:00,0,49875,53,0.43,0,0,0,0,49467,50000,205,50000,41,61,7,51,0.05,1.15,0.31,0.40
2014-09-11 22:30:00,0,47970,45,0.03,0,0,0,0,43037,50000,2671,49634,0,61,23,56,0.00,0.30,0.09,0.00
2014-09-11 22:40:00,0,39914,0,0.00,0,0,0,0,14278,50000,11153,42040,0,0,0,0,0.00,0.00,0.00,0.00
2014-09-11 22:50:00,0,41192,0,0.00,0,0,0,0,18273,50000,9305,40749,0,0,0,0,0.00,0.00,0.00,0.00
2014-09-11 23:00:00,0,48715,0,0.00,0,0,0,0,45155,50000,1674,49642,0,0,0,0,0.00,0.00,0.00,0.00
2014-09-11 23:10:00,0,49535,42,0.04,0,0,0,0,46896,50000,931,50000,0,51,15,46,0.00,0.25,0.07,0.03
2014-09-11 23:20:00,0,40391,6,0.03,0,0,0,0,29853,45353,4355,41004,0,61,18,0,0.00,0.30,0.09,0.00
2014-09-11 23:30:00,0,34391,55,0.49,0,0,0,0,24557,50000,8920,32418,51,61,5,51,0.10,1.15,0.34,0.42
2014-09-11 23:40:00,0,20751,61,1.92,0,0,0,0,10927,31297,8107,20514,61,61,0,61,0.85,3.50,0.85,1.62
2014-09-11 23:50:00,0,14169,61,1.50,0,0,0,0,12705,15896,1095,14313,61,61,0,61,0.55,2.60,0.62,1.35
